Snowfall_Accumulation
0.0 0.0 0.0 0.0 0.0 0.0 0.0 0.0 0.1 0.2 0.0 0.0 0.0 0.0 0.0 0.0 0.0 0.0 0.0 0.0 0.0 0.0 0.0 0.0 0.0 0.0 0.0 0.0 0.0 0.0 0.0 0.0 0.0 0.0 0.0 0.0 0.0 0.0
0.0 0.0 0.0 0.0 0.0 0.0 0.0 0.0 0.0 0.2 0.2 0.0 0.0 0.0 0.0 0.0 0.0 0.0 0.0 0.0 0.0 0.0 0.0 0.0 0.0 0.0 0.0 0.0 0.0 0.0 0.0 0.0 0.0 0.0 0.0 0.0 0.0 0.0
0.0 0.0 0.0 0.0 0.0 0.0 0.0 0.0 0.0 0.1 0.3 0.1 0.0 0.1 0.0 0.0 0.0 0.0 0.0 0.0 0.0 0.1 0.1 0.1 0.1 0.1 0.1 0.1 0.0 0.0 0.0 0.0 0.0 0.0 0.0 0.0 0.0 0.0
0.0 0.0 0.0 0.0 0.0 0.0 0.0 0.0 0.1 0.1 0.5 0.9 0.6 0.5 0.4 0.2 0.2 0.2 0.1 0.1 0.1 0.1 0.1 0.2 0.2 0.2 0.2 0.2 0.2 0.1 0.1 0.1 0.0 0.0 0.0 0.0 0.0 0.0
0.0 0.0 0.1 0.1 0.1 0.1 0.1 0.1 0.3 0.4 0.9 1.4 0.7 0.3 0.3 0.2 0.2 0.1 0.1 0.1 0.0 0.0 0.1 0.1 0.2 0.3 0.4 0.4 0.3 0.2 0.2 0.1 0.1 0.1 0.1 0.0 0.0 0.0
0.1 0.1 0.1 0.1 0.3 0.5 0.7 0.7 1.4 1.2 1.1 1.5 1.5 1.1 0.8 0.5 0.5 0.6 0.5 0.3 0.2 0.1 0.0 0.1 0.1 0.3 0.3 0.2 0.3 0.3 0.3 0.4 0.4 0.4 0.3 0.2 0.2 0.1
0.2 0.3 0.4 0.4 0.3 0.5 0.9 1.3 1.3 1.7 2.2 2.8 2.6 1.7 1.0 0.7 0.6 0.7 0.8 0.5 0.3 0.2 0.2 0.1 0.2 0.2 0.1 0.1 0.1 0.0 0.2 0.4 0.5 0.5 0.5 0.5 0.3 0.3
0.7 0.7 0.9 0.8 0.5 0.5 0.6 0.9 1.7 2.9 3.5 4.0 3.5 2.6 1.4 0.9 0.8 1.1 1.5 2.1 1.6 0.3 0.4 0.3 0.1 0.1 0.1 0.1 0.1 0.2 0.5 0.7 0.8 0.9 0.7 0.7 0.5 0.4
1.1 1.1 1.0 0.9 0.8 0.6 0.6 1.1 1.6 2.1 2.7 3.0 2.9 1.8 1.4 1.1 2.0 3.0 3.0 3.2 2.3 0.6 0.6 0.7 0.2 0.2 0.1 0.1 0.2 0.3 0.4 0.6 0.7 0.8 0.8 0.8 0.7 0.5
0.8 0.7 0.7 0.5 0.5 0.9 1.5 1.9 1.5 1.2 1.1 1.0 1.1 1.1 1.2 1.3 2.5 4.0 3.7 2.7 1.1 0.5 0.4 1.4 0.6 0.4 0.2 0.1 0.1 0.1 0.2 0.4 0.7 0.8 0.9 0.9 0.8 0.6
0.8 0.6 0.6 0.6 0.8 1.9 2.8 2.8 1.6 0.6 0.4 0.6 1.0 1.0 1.0 0.9 1.1 2.5 3.7 4.9 3.6 0.9 0.6 1.3 0.8 0.6 0.3 0.1 0.0 0.2 0.4 0.5 0.6 0.8 0.9 0.9 0.9 0.8
0.8 0.6 0.6 0.8 1.5 2.8 3.0 2.9 1.9 0.8 1.1 0.9 0.5 0.3 0.3 0.2 0.5 2.1 5.9 10.2 8.0 4.1 0.6 1.7 2.0 2.7 3.9 0.7 0.7 0.6 0.5 0.5 0.9 0.8 0.8 0.9 0.9 1.2
1.1 0.6 0.4 1.1 2.2 2.7 2.3 1.4 1.5 2.2 1.8 0.9 0.5 0.3 0.4 0.4 0.4 0.8 2.9 9.1 12.3 8.0 1.8 5.1 6.9 4.6 7.0 3.9 1.1 0.6 0.7 1.3 1.6 1.3 0.8 0.9 1.1 1.7
1.6 0.8 0.8 1.7 1.9 1.4 0.9 1.0 1.8 1.9 1.2 1.3 1.2 1.1 1.2 1.1 1.1 1.2 1.5 2.8 5.7 7.2 4.3 7.8 12.6 9.3 11.5 8.7 3.9 1.7 1.4 2.1 3.6 3.5 2.3 1.6 1.3 1.2
1.4 1.6 1.8 1.4 1.0 0.7 0.6 1.1 1.2 1.7 2.4 3.4 3.3 2.7 1.9 2.0 1.8 2.4 2.5 2.9 3.8 5.2 5.8 6.9 10.4 11.3 12.6 12.1 8.0 5.7 5.9 3.6 3.5 5.6 5.3 3.6 2.5 1.6
1.7 1.6 1.2 0.7 0.6 0.7 0.9 1.3 1.6 2.1 3.7 4.8 4.3 3.4 3.0 3.6 3.9 5.3 6.6 6.9 7.6 6.7 5.9 5.6 6.8 9.9 11.1 8.3 9.0 8.3 8.3 10.3 7.7 7.3 5.9 4.6 3.0 2.2
2.5 1.4 1.0 1.3 1.2 1.5 1.6 1.5 1.9 2.4 3.3 4.0 4.6 4.8 4.6 5.3 6.3 7.4 9.1 10.1 10.5 9.0 7.5 5.5 4.6 5.3 6.8 7.9 8.5 7.3 8.0 10.2 7.7 6.8 5.5 5.9 3.9 2.0
2.2 2.3 2.2 2.3 2.4 2.2 2.4 2.5 2.8 3.1 3.9 5.4 5.9 6.4 7.3 7.9 8.8 9.1 10.6 11.9 11.4 9.2 7.5 5.8 5.0 5.0 4.4 4.3 5.6 8.1 9.3 10.4 8.4 4.6 4.9 7.4 5.9 3.0
1.9 2.8 3.0 3.0 3.0 3.0 3.4 3.8 4.1 4.1 5.5 7.3 8.0 8.6 9.7 10.0 10.7 11.4 11.5 11.4 10.2 8.2 6.9 5.9 6.9 10.6 11.9 8.1 4.6 6.5 11.3 11.8 8.0 6.4 5.5 6.1 6.9 3.8
2.0 2.6 3.0 3.3 3.4 3.8 4.1 5.0 5.6 5.9 6.8 8.1 8.9 9.5 11.0 12.2 12.6 12.0 11.4 11.0 10.2 8.2 6.1 4.7 5.9 10.3 16.1 14.3 11.0 8.5 6.6 10.6 12.0 10.5 6.3 3.5 3.1 2.2
2.3 2.1 2.3 2.8 3.7 4.2 4.8 5.5 6.6 7.8 9.1 10.7 11.1 11.5 12.2 14.0 14.2 11.9 10.7 9.4 8.8 8.0 6.8 4.8 4.3 6.3 10.2 12.7 12.0 9.7 9.5 6.0 7.1 11.4 11.3 10.3 8.6 6.6
2.7 2.8 2.6 2.7 3.6 4.3 5.1 6.0 7.5 8.5 9.7 10.8 11.3 11.6 12.1 13.4 13.2 10.8 9.0 8.5 7.8 7.3 6.5 5.0 4.2 5.3 8.3 11.8 11.0 8.7 8.6 7.4 4.6 3.3 4.7 8.7 15.7 17.0
3.5 3.6 3.5 3.4 4.2 4.7 5.8 6.7 8.1 9.1 9.9 11.6 12.0 11.6 11.2 10.8 9.1 8.4 8.0 8.1 8.2 7.5 6.9 6.4 5.4 5.5 6.6 8.1 9.1 8.5 7.5 6.8 6.5 6.7 7.7 3.5 3.7 4.1